, TX

(GMT )
Ingleside

Weather History for KTFP - November, 2012

Change the Weather History Date:

Sunday, November 11, 2012

  Actual Average Record
Temperature  
Mean Temperature 80 °F -  
Max Temperature 85 °F - - ()
Min Temperature 75 °F - - ()
Cooling Degree Days 15    
Growing Degree Days 30 (Base 50)    
Moisture  
Dew Point 69 °F    
Average Humidity 72    
Maximum Humidity 88    
Minimum Humidity 56    
Precipitation  
Precipitation 0.00 in - - ()
Sea Level Pressure  
Sea Level Pressure 29.91 in    
Wind  
Wind Speed 14 mph (SSE)    
Max Wind Speed 25 mph    
Max Gust Speed 34 mph    
Visibility 10 miles    
Events      
Averages and records for this station are not official NWS values.
T = Trace of Precipitation, MM = Missing Value Source: NWS Daily Summary

Daily Weather History Graph

Daily Weather History Graph

Search for Another Location

Airport or City:

Trip Planner

Search our weather history database for the weather conditions in past years. The results will help you decide how hot, cold, wet, or windy it might be!

Date:

Astronomy

Nov. 11, 2012 Rise Set
Actual Time 6:47 AM CST 5:37 PM CST
Civil Twilight 6:22 AM CST 6:02 PM CST
Nautical Twilight 5:54 AM CST 6:30 PM CST
Astronomical Twilight 5:27 AM CST 6:58 PM CST
Moon 4:13 AM CST (11/11) 3:54 PM CST (11/11)
Length of Visible Light 11h 39m
Length of Day
10h 50m
Waning Crescent, 7% of the Moon is Illuminated
Nov 11
Waning Crescent
Nov 13
New
Nov 20
First Quarter
Nov 28
Full
Dec 6
Last Quarter

Hourly Weather History & Observations

Time (CST) Temp. Heat Index Dew Point Humidity Pressure Visibility Wind Dir Wind Speed Gust Speed Precip Events Conditions
12:15 AM 77.2 °F - 68.9 °F 76% 29.91 in 10.0 mi SSE 15.0 mph 23.0 mph N/A   Clear
12:35 AM 77.4 °F - 68.4 °F 74% 29.91 in 10.0 mi SSE 13.8 mph 19.6 mph N/A   Clear
12:55 AM 77.2 °F - 68.5 °F 75% 29.90 in 10.0 mi SSE 13.8 mph 18.4 mph N/A   Clear
1:15 AM 77.2 °F - 69.1 °F 76% 29.90 in 10.0 mi SSE 15.0 mph 21.9 mph N/A   Clear
1:35 AM 77.2 °F - 69.6 °F 77% 29.89 in 10.0 mi SSE 16.1 mph 20.7 mph N/A   Clear
1:55 AM 77.2 °F - 69.8 °F 78% 29.88 in 10.0 mi SSE 12.7 mph 21.9 mph N/A   Clear
2:15 AM 77.5 °F - 69.8 °F 77% 29.87 in 10.0 mi South 16.1 mph 23.0 mph N/A   Scattered Clouds
2:35 AM 77.5 °F - 70.0 °F 77% 29.87 in 10.0 mi SSE 15.0 mph 20.7 mph N/A   Clear
2:55 AM 77.4 °F - 70.3 °F 79% 29.86 in 10.0 mi SSE 17.3 mph 21.9 mph N/A   Clear
3:15 AM 77.7 °F - 70.3 °F 78% 29.85 in 10.0 mi SSE 13.8 mph 18.4 mph N/A   Scattered Clouds
3:35 AM 77.9 °F - 70.9 °F 79% 29.85 in 10.0 mi South 15.0 mph 21.9 mph N/A   Overcast
3:55 AM 78.1 °F - 70.2 °F 77% 29.84 in 10.0 mi South 17.3 mph 24.2 mph N/A   Scattered Clouds
4:15 AM 77.9 °F - 69.1 °F 74% 29.84 in 10.0 mi South 13.8 mph 20.7 mph N/A   Scattered Clouds
4:35 AM 78.1 °F - 69.1 °F 74% 29.84 in 10.0 mi South 15.0 mph 25.3 mph N/A   Mostly Cloudy
4:55 AM 78.1 °F - 69.6 °F 75% 29.84 in 10.0 mi South 12.7 mph 20.7 mph N/A   Mostly Cloudy
5:35 AM 77.9 °F - 70.2 °F 77% 29.86 in 10.0 mi South 15.0 mph - N/A   Mostly Cloudy
5:55 AM 77.4 °F - 70.7 °F 80% 29.87 in 10.0 mi South 11.5 mph 21.9 mph N/A   Overcast
6:15 AM 76.8 °F - 70.2 °F 80% 29.87 in 10.0 mi South 15.0 mph 20.7 mph N/A   Mostly Cloudy
6:35 AM 77.2 °F - 69.1 °F 76% 29.87 in 10.0 mi South 16.1 mph 26.5 mph N/A   Scattered Clouds
6:55 AM 77.7 °F - 68.9 °F 74% 29.87 in 10.0 mi South 15.0 mph 26.5 mph N/A   Clear
7:35 AM 78.6 °F - 68.4 °F 71% 29.89 in 10.0 mi South 17.3 mph 23.0 mph N/A   Mostly Cloudy
7:55 AM 79.2 °F - 68.4 °F 69% 29.90 in 10.0 mi South 17.3 mph 23.0 mph N/A   Overcast
8:15 AM 79.2 °F - 68.5 °F 70% 29.91 in 10.0 mi South 13.8 mph 20.7 mph N/A   Overcast
8:35 AM 79.2 °F - 68.5 °F 70% 29.91 in 10.0 mi South 13.8 mph 21.9 mph N/A   Mostly Cloudy
8:55 AM 80.1 °F 82.9 °F 68.9 °F 69% 29.92 in 10.0 mi South 17.3 mph 24.2 mph N/A   Mostly Cloudy
9:35 AM 81.7 °F 85.1 °F 69.3 °F 66% 29.93 in 10.0 mi South 15.0 mph 23.0 mph N/A   Mostly Cloudy
9:55 AM 82.0 °F 85.5 °F 69.4 °F 65% 29.93 in 10.0 mi South 17.3 mph 21.9 mph N/A   Overcast
10:15 AM 82.0 °F 85.5 °F 69.4 °F 65% 29.93 in 10.0 mi South 15.0 mph 23.0 mph N/A   Overcast
10:35 AM 81.9 °F 85.2 °F 68.9 °F 65% 29.92 in 10.0 mi South 13.8 mph 23.0 mph N/A   Mostly Cloudy
10:55 AM 82.2 °F 85.3 °F 68.5 °F 63% 29.91 in 10.0 mi South 18.4 mph 27.6 mph N/A   Mostly Cloudy
11:15 AM 83.5 °F 86.7 °F 68.4 °F 60% 29.91 in 10.0 mi South 20.7 mph 31.1 mph N/A   Scattered Clouds
11:35 AM 83.7 °F 87.0 °F 68.4 °F 60% 29.91 in 10.0 mi South 18.4 mph 28.8 mph N/A   Clear
12:15 PM 84.4 °F 87.6 °F 68.0 °F 58% 29.89 in 10.0 mi South 24.2 mph 32.2 mph N/A   Clear
12:35 PM 84.6 °F 87.9 °F 68.2 °F 58% 29.88 in 10.0 mi South 25.3 mph 31.1 mph N/A   Clear
12:55 PM 84.7 °F 88.2 °F 68.4 °F 58% 29.87 in 10.0 mi South 24.2 mph 29.9 mph N/A   Clear
1:15 PM 85.1 °F 88.2 °F 68.0 °F 56% 29.87 in 10.0 mi South 17.3 mph 29.9 mph N/A   Scattered Clouds
1:35 PM 84.6 °F 87.4 °F 67.5 °F 56% 29.86 in 10.0 mi South 24.2 mph 31.1 mph N/A   Scattered Clouds
1:55 PM 83.7 °F 86.5 °F 67.3 °F 58% 29.86 in 10.0 mi South 20.7 mph 34.5 mph N/A   Mostly Cloudy
2:15 PM 84.6 °F 87.6 °F 68.0 °F 57% 29.86 in 10.0 mi SSE 23.0 mph 31.1 mph N/A   Mostly Cloudy
2:35 PM 83.8 °F 86.7 °F 67.6 °F 58% 29.87 in 10.0 mi SSE 19.6 mph 26.5 mph N/A   Mostly Cloudy
2:55 PM 82.8 °F 85.5 °F 67.5 °F 60% 29.87 in 10.0 mi SSE 17.3 mph 26.5 mph N/A   Mostly Cloudy
3:15 PM 82.2 °F 85.1 °F 68.0 °F 62% 29.87 in 10.0 mi SSE 18.4 mph 26.5 mph N/A   Mostly Cloudy
3:35 PM 81.9 °F 85.0 °F 68.5 °F 64% 29.87 in 10.0 mi SSE 15.0 mph 24.2 mph N/A   Mostly Cloudy
3:55 PM 81.5 °F 84.8 °F 69.1 °F 66% 29.87 in 10.0 mi SSE 15.0 mph 19.6 mph N/A   Mostly Cloudy
4:15 PM 81.3 °F 84.5 °F 69.1 °F 66% 29.88 in 10.0 mi SSE 15.0 mph 21.9 mph N/A   Overcast
4:35 PM 80.8 °F 83.8 °F 68.9 °F 67% 29.89 in 10.0 mi SSE 13.8 mph - N/A   Overcast
4:55 PM 80.4 °F 83.4 °F 68.9 °F 68% 29.89 in 10.0 mi SSE 13.8 mph 18.4 mph N/A   Mostly Cloudy
5:15 PM 80.1 °F 83.0 °F 69.4 °F 70% 29.89 in 10.0 mi SSE 15.0 mph 20.7 mph N/A   Mostly Cloudy
5:35 PM 79.7 °F - 69.8 °F 72% 29.90 in 10.0 mi SSE 13.8 mph 18.4 mph N/A   Scattered Clouds
5:55 PM 79.3 °F - 70.2 °F 73% 29.91 in 10.0 mi SSE 9.2 mph - N/A   Mostly Cloudy
6:15 PM 79.0 °F - 70.9 °F 76% 29.92 in 10.0 mi SSE 10.4 mph - N/A   Scattered Clouds
6:35 PM 79.0 °F - 70.2 °F 74% 29.93 in 10.0 mi SSE 10.4 mph - N/A   Scattered Clouds
6:55 PM 78.8 °F - 70.2 °F 75% 29.94 in 10.0 mi SSE 12.7 mph - N/A   Scattered Clouds
7:15 PM 78.8 °F - 70.2 °F 75% 29.94 in 10.0 mi SSE 10.4 mph - N/A   Mostly Cloudy
7:35 PM 78.8 °F - 70.0 °F 74% 29.96 in 10.0 mi SSE 11.5 mph - N/A   Scattered Clouds
7:55 PM 78.4 °F - 70.2 °F 76% 29.97 in 10.0 mi SSE 8.1 mph - N/A   Scattered Clouds
8:15 PM 78.3 °F - 70.7 °F 77% 29.98 in 10.0 mi SSE 9.2 mph - N/A   Mostly Cloudy
8:35 PM 78.3 °F - 70.7 °F 77% 29.99 in 10.0 mi South 8.1 mph - N/A   Scattered Clouds
8:55 PM 78.1 °F - 70.7 °F 78% 30.00 in 10.0 mi SSE 6.9 mph - N/A   Scattered Clouds
9:15 PM 77.7 °F - 70.7 °F 79% 30.00 in 10.0 mi SSE 8.1 mph - N/A   Clear
9:35 PM 77.2 °F - 71.1 °F 81% 30.01 in 10.0 mi SSE 6.9 mph - N/A   Clear
9:55 PM 76.8 °F - 71.2 °F 83% 30.02 in 10.0 mi South 4.6 mph - N/A   Clear
10:15 PM 76.6 °F - 71.4 °F 84% 30.03 in 10.0 mi South 4.6 mph - N/A   Clear
10:35 PM 76.1 °F - 71.4 °F 85% 30.04 in 10.0 mi South 4.6 mph - N/A   Clear
10:55 PM 76.1 °F - 71.6 °F 86% 30.05 in 7.0 mi South 3.5 mph - N/A   Mostly Cloudy
11:15 PM 75.9 °F - 71.4 °F 86% 30.05 in 7.0 mi South 3.5 mph - N/A   Mostly Cloudy
11:35 PM 75.6 °F - 71.6 °F 87% 30.06 in 7.0 mi Calm Calm - N/A   Overcast
11:55 PM 75.4 °F - 71.6 °F 88% 30.07 in 7.0 mi Calm Calm - N/A   Scattered Clouds